This is the latest recevied weather packets stored in our database for station/object K4FB. If no packets are shown the sender has not sent any weather packets the latest 10 day(s).
| Time | Temp. | Humidity | Pressure | Rain* | Wind** | Luminosity | Snow |
|---|---|---|---|---|---|---|---|
| 1777667703 | 34.44° C | 40% | 1010.3 hPa | 0 mm | - | - | - |
| 1777666804 | 35° C | 41% | 1010.5 hPa | 0 mm | - | - | - |
| 1777666520 | 35° C | 41% | 1010.6 hPa | 0 mm | - | - | - |
| 1777664715 | 35° C | 40% | 1011.1 hPa | 0 mm | - | - | - |
| 1777662604 | 35° C | 44% | 1011.8 hPa | 0 mm | - | - | - |
| 1777661123 | 34.44° C | 42% | 1012.1 hPa | 0 mm | - | - | - |
| 1777660809 | 34.44° C | 41% | 1012.1 hPa | 0 mm | - | - | - |
| 1777660504 | 33.89° C | 47% | 1012.1 hPa | 0 mm | - | - | - |
| 1777656306 | 33.89° C | 46% | 1012.9 hPa | 0 mm | - | - | - |
| 1777653310 | 33.33° C | 49% | 1013.2 hPa | 0 mm | - | - | - |
| 1777653017 | 33.33° C | 50% | 1013.2 hPa | 0 mm | - | - | - |
| 1777652707 | 32.78° C | 51% | 1013.3 hPa | 0 mm | - | - | - |
| 1777651515 | 31.67° C | 53% | 1013.7 hPa | 0 mm | - | - | - |
| 1777646406 | 28.89° C | 68% | 1013.7 hPa | 0 mm | - | - | - |
| 1777645819 | 28.33° C | 71% | 1013.7 hPa | 0 mm | - | - | - |
| 1777642805 | 26.11° C | 76% | 1013.8 hPa | 0 mm | - | - | - |
| 1777642508 | 26.11° C | 77% | 1013.8 hPa | 0 mm | - | - | - |
| 1777639806 | 23.89° C | 88% | 1013.6 hPa | 0 mm | - | - | - |
| 1777639204 | 23.33° C | 90% | 1013.6 hPa | 0 mm | - | - | - |
| 1777637104 | 22.22° C | 95% | 1013.5 hPa | 0 mm | - | - | - |
| 1777636504 | 21.67° C | 95% | 1013.4 hPa | 0 mm | - | - | - |
| 1777634405 | 21.67° C | 95% | 1013.2 hPa | 0 mm | - | - | - |
| 1777634117 | 21.11° C | 95% | 1013.2 hPa | 0 mm | - | - | - |
| 1777631704 | 21.11° C | 95% | 1012.7 hPa | 0 mm | - | - | - |
| 1777629624 | 20.56° C | 94% | 1012.6 hPa | 0 mm | - | - | - |
* Rain latest hour (hover to see other rain measurements)
** Current wind speed in m/s (hover to see current wind gust speed)